sat.trackr.live / text

‹ back to catalog

STARLINK-3795

NORAD 52264 · 2022-041D

PAYLOAD ACTIVE UNKNOWN

§ Identity

Operator
Country
US
Launch date
2022-04-21
Launch site
AFETR
Launch vehicle
Mass (kg)
RCS (m²)

Purposes: comms

External: N2YO · Heavens-Above · Gunter

§ Orbital elements

Epoch: 2026-09-19T19:41:51.785664Z

Period
93.85 min
Inclination
53.1601°
Eccentricity
0.0001210
Mean motion
15.34386184 rev/d
Perigee alt
461.9 km
Apogee alt
463.6 km
Semi-major
6,840.9 km
B*
4.0763e-5
RAAN
301.1471°
Arg perigee
85.6112°
Mean anomaly
274.5029°
Rev number
24,389

§ Raw data

STARLINK-37951 52264U 22041D   26262.82073826  .00001001  00000+0  40763-4 0  99972 52264  53.1601 301.1471 0001210  85.6112 274.5029 15.34386184243899

JSON: /api/v1/satellites/52264 · /tle

For live sub-satellite position, see the globe view (requires WebGL).

§ Visibility from observer

Set your observer location to see the next 7 days of passes ≥ 10°. The values pass through the URL so the page stays shareable.

No JS? Fill the form by hand. The geolocation button needs JavaScript.